| time (UTC) | temp F | wind direction | speed knots | gust knots | rain 1hr in | rain 24hr in | rain mn in | humidity % | barometer mb |
| 20260510160540 | 58 | 261 | 2.6 | 10.4 | 0.00 | 0.02 | 0.01 | 79 | 1010.1 |
| 20260510160049 | 58 | 182 | 3.5 | 11.3 | 0.00 | 0.02 | 0.01 | 79 | 1010.0 |
| 20260510155540 | 58 | 350 | 3.5 | 11.3 | 0.00 | 0.02 | 0.01 | 80 | 1010.0 |
| 20260510155038 | 57 | 159 | 1.7 | 10.4 | 0.00 | 0.02 | 0.01 | 82 | 1010.0 |
| 20260510154554 | 56 | 252 | 2.6 | 10.4 | 0.00 | 0.02 | 0.01 | 82 | 1010.0 |
| 20260510154040 | 56 | 202 | 3.5 | 8.7 | 0.00 | 0.02 | 0.01 | 80 | 1009.9 |
| 20260510153542 | 56 | 210 | 4.3 | 8.7 | 0.00 | 0.02 | 0.01 | 79 | 1010.0 |
| 20260510153052 | 56 | 207 | 2.6 | 8.7 | 0.00 | 0.02 | 0.01 | 81 | 1010.0 |
| 20260510152539 | 56 | 198 | 2.6 | 10.4 | 0.00 | 0.02 | 0.01 | 82 | 1010.0 |
| 20260510152040 | 56 | 276 | 2.6 | 10.4 | 0.00 | 0.02 | 0.01 | 83 | 1009.9 |
| 20260510151551 | 56 | 231 | 2.6 | 10.4 | 0.00 | 0.02 | 0.01 | 84 | 1009.9 |
| 20260510151039 | 55 | 227 | 2.6 | 10.4 | 0.00 | 0.02 | 0.01 | 85 | 1009.8 |
| 20260510150540 | 55 | 280 | 4.3 | 9.6 | 0.00 | 0.02 | 0.01 | 85 | 1009.9 |
| 20260510150103 | 54 | 256 | 3.5 | 8.7 | 0.00 | 0.02 | 0.01 | 84 | 1009.6 |
| 20260510145538 | 55 | 233 | 1.7 | 13.0 | 0.00 | 0.02 | 0.01 | 84 | 1009.8 |
| 20260510145038 | 56 | 257 | 4.3 | 13.0 | 0.00 | 0.02 | 0.01 | 82 | 1010.0 |
| 20260510144552 | 57 | 196 | 5.2 | 11.3 | 0.00 | 0.02 | 0.01 | 79 | 1009.9 |
| 20260510144040 | 57 | 282 | 3.5 | 8.7 | 0.00 | 0.02 | 0.01 | 78 | 1009.7 |
| 20260510143538 | 57 | 210 | 1.7 | 8.7 | 0.00 | 0.02 | 0.01 | 80 | 1009.4 |
| 20260510143053 | 57 | 242 | 2.6 | 11.3 | 0.00 | 0.02 | 0.01 | 79 | 1009.5 |
| 20260510142540 | 57 | 209 | 2.6 | 11.3 | 0.00 | 0.02 | 0.01 | 81 | 1009.4 |
| 20260510142039 | 56 | 252 | 3.5 | 12.2 | 0.00 | 0.02 | 0.01 | 80 | 1009.4 |
| 20260510141603 | 56 | 250 | 2.6 | 12.2 | 0.00 | 0.02 | 0.01 | 82 | 1009.3 |
| 20260510141041 | 56 | 223 | 3.5 | 9.6 | 0.00 | 0.02 | 0.01 | 81 | 1009.4 |
| 20260510140537 | 56 | 248 | 3.5 | 9.6 | 0.00 | 0.02 | 0.01 | 80 | 1009.4 |
| 20260510140050 | 56 | 254 | 2.6 | 6.1 | 0.00 | 0.02 | 0.01 | 81 | 1009.5 |
| 20260510135539 | 55 | 234 | 2.6 | 7.0 | 0.00 | 0.02 | 0.01 | 81 | 1009.4 |
| 20260510135040 | 55 | 197 | 1.7 | 7.0 | 0.00 | 0.02 | 0.01 | 80 | 1009.5 |
| 20260510134551 | 55 | 246 | 2.6 | 7.0 | 0.00 | 0.02 | 0.01 | 80 | 1009.4 |
| 20260510134038 | 55 | 242 | 2.6 | 7.8 | 0.00 | 0.02 | 0.01 | 81 | 1009.4 |
| 20260510133538 | 55 | 195 | 1.7 | 7.8 | 0.00 | 0.02 | 0.01 | 82 | 1009.4 |
| 20260510133050 | 55 | 196 | 3.5 | 9.6 | 0.00 | 0.02 | 0.01 | 82 | 1009.5 |
| 20260510132540 | 54 | 184 | 2.6 | 9.6 | 0.00 | 0.02 | 0.01 | 83 | 1009.6 |
| 20260510132039 | 54 | 255 | 2.6 | 9.6 | 0.00 | 0.02 | 0.01 | 83 | 1009.5 |
| 20260510131605 | 54 | 195 | 1.7 | 8.7 | 0.00 | 0.02 | 0.01 | 83 | 1009.5 |
| 20260510131040 | 54 | 189 | 3.5 | 7.8 | 0.00 | 0.02 | 0.01 | 83 | 1009.4 |
| 20260510130539 | 54 | 208 | 1.7 | 11.3 | 0.00 | 0.02 | 0.01 | 84 | 1009.2 |
| 20260510130049 | 54 | 181 | 2.6 | 11.3 | 0.00 | 0.02 | 0.01 | 83 | 1009.1 |
| 20260510125538 | 54 | 198 | 0.9 | 9.6 | 0.00 | 0.02 | 0.01 | 84 | 1009.4 |
| 20260510125038 | 54 | 225 | 2.6 | 10.4 | 0.00 | 0.02 | 0.01 | 83 | 1009.5 |
| 20260510124543 | 54 | 171 | 3.5 | 10.4 | 0.00 | 0.02 | 0.01 | 83 | 1009.5 |
| 20260510124040 | 54 | 188 | 1.7 | 7.8 | 0.00 | 0.02 | 0.01 | 84 | 1009.7 |
| 20260510123539 | 54 | 210 | 3.5 | 8.7 | 0.00 | 0.02 | 0.01 | 84 | 1009.8 |
| 20260510123043 | 54 | 216 | 3.5 | 8.7 | 0.00 | 0.02 | 0.01 | 84 | 1009.8 |
| 20260510122538 | 53 | 126 | 2.6 | 8.7 | 0.00 | 0.02 | 0.01 | 84 | 1009.7 |
| 20260510122038 | 54 | 227 | 2.6 | 8.7 | 0.00 | 0.02 | 0.01 | 84 | 1009.7 |
| 20260510121548 | 54 | 288 | 0.9 | 7.8 | 0.00 | 0.02 | 0.01 | 85 | 1009.5 |
| 20260510121037 | 54 | 276 | 1.7 | 7.8 | 0.00 | 0.02 | 0.01 | 85 | 1009.4 |
| 20260510120538 | 53 | 167 | 2.6 | 10.4 | 0.00 | 0.02 | 0.01 | 87 | 1009.5 |
| 20260510120048 | 53 | 229 | 2.6 | 10.4 | 0.00 | 0.02 | 0.01 | 87 | 1009.6 |
| 20260510115539 | 52 | 208 | 1.7 | 6.1 | 0.00 | 0.02 | 0.01 | 87 | 1009.5 |
| 20260510115039 | 52 | 140 | 2.6 | 9.6 | 0.00 | 0.02 | 0.01 | 87 | 1009.6 |
| 20260510114554 | 53 | 213 | 3.5 | 9.6 | 0.00 | 0.02 | 0.01 | 88 | 1009.4 |
| 20260510114038 | 53 | 238 | 2.6 | 8.7 | 0.00 | 0.02 | 0.01 | 90 | 1009.3 |
| 20260510113539 | 52 | 178 | 1.7 | 7.8 | 0.00 | 0.02 | 0.01 | 90 | 1009.3 |
| 20260510113044 | 51 | 177 | 2.6 | 7.8 | 0.00 | 0.02 | 0.01 | 91 | 1009.2 |
| 20260510112543 | 50 | 237 | 1.7 | 5.2 | 0.00 | 0.02 | 0.01 | 91 | 1009.2 |
| 20260510112039 | 50 | 213 | 1.7 | 5.2 | 0.01 | 0.02 | 0.01 | 91 | 1009.2 |
| 20260510111601 | 50 | 214 | 0.9 | 4.3 | 0.01 | 0.02 | 0.01 | 91 | 1009.1 |
| 20260510111038 | 49 | 0 | 0.0 | 3.5 | 0.01 | 0.02 | 0.01 | 91 | 1009.1 |
| 20260510110536 | 49 | 271 | 0.9 | 5.2 | 0.01 | 0.02 | 0.01 | 91 | 1009.3 |
| 20260510110053 | 49 | 245 | 0.9 | 5.2 | 0.01 | 0.02 | 0.01 | 91 | 1009.1 |
| 20260510105538 | 48 | 223 | 0.0 | 5.2 | 0.01 | 0.02 | 0.01 | 91 | 1009.1 |
| 20260510105039 | 48 | 237 | 0.9 | 6.1 | 0.01 | 0.02 | 0.01 | 90 | 1009.0 |
| 20260510104547 | 48 | 86 | 1.7 | 7.8 | 0.01 | 0.02 | 0.01 | 91 | 1008.8 |
| 20260510104039 | 48 | 149 | 1.7 | 7.8 | 0.01 | 0.02 | 0.01 | 91 | 1008.1 |
| 20260510103541 | 47 | 140 | 0.9 | 4.3 | 0.01 | 0.02 | 0.01 | 91 | 1007.7 |
| 20260510103047 | 48 | 142 | 0.9 | 4.3 | 0.01 | 0.02 | 0.01 | 91 | 1008.4 |
| 20260510102539 | 48 | 161 | 0.9 | 4.3 | 0.01 | 0.02 | 0.01 | 91 | 1008.8 |
| 20260510102042 | 47 | 0 | 0.0 | 2.6 | 0.00 | 0.01 | 0.00 | 90 | 1008.8 |
| 20260510101544 | 47 | 0 | 0.0 | 0.0 | 0.00 | 0.01 | 0.00 | 91 | 1008.8 |
| 20260510101038 | 47 | 0 | 0.0 | 0.0 | 0.00 | 0.01 | 0.00 | 91 | 1008.7 |
| 20260510100539 | 47 | 0 | 0.0 | 0.0 | 0.00 | 0.01 | 0.00 | 90 | 1008.7 |
| 20260510100052 | 47 | 0 | 0.0 | 0.0 | 0.00 | 0.01 | 0.00 | 90 | 1008.5 |
| 20260510095540 | 47 | 0 | 0.0 | 0.0 | 0.00 | 0.01 | 0.00 | 91 | 1008.3 |
| 20260510095037 | 47 | 0 | 0.0 | 0.0 | 0.00 | 0.01 | 0.00 | 91 | 1008.0 |
| 20260510094559 | 47 | 0 | 0.0 | 0.0 | 0.00 | 0.01 | 0.00 | 90 | 1008.0 |
| 20260510094036 | 47 | 0 | 0.0 | 0.0 | 0.00 | 0.01 | 0.00 | 90 | 1007.8 |
| 20260510093538 | 47 | 0 | 0.0 | 0.0 | 0.00 | 0.01 | 0.00 | 90 | 1007.8 |
| 20260510093105 | 47 | 0 | 0.0 | 0.0 | 0.00 | 0.01 | 0.00 | 90 | 1007.6 |
| 20260510092538 | 47 | 0 | 0.0 | 1.7 | 0.00 | 0.01 | 0.00 | 90 | 1007.5 |
| 20260510092042 | 48 | 0 | 0.0 | 2.6 | 0.00 | 0.01 | 0.00 | 90 | 1007.6 |
| 20260510091547 | 48 | 0 | 0.0 | 2.6 | 0.00 | 0.01 | 0.00 | 90 | 1007.6 |
| 20260510091039 | 48 | 257 | 0.0 | 2.6 | 0.00 | 0.01 | 0.00 | 90 | 1007.7 |
| 20260510090537 | 48 | 257 | 0.9 | 3.5 | 0.00 | 0.01 | 0.00 | 90 | 1007.8 |
| 20260510090047 | 48 | 173 | 0.9 | 3.5 | 0.00 | 0.01 | 0.00 | 90 | 1007.4 |
| 20260510085539 | 48 | 215 | 0.0 | 2.6 | 0.00 | 0.01 | 0.00 | 90 | 1007.5 |
| 20260510085038 | 48 | 0 | 0.0 | 2.6 | 0.00 | 0.01 | 0.00 | 90 | 1007.3 |
| 20260510084543 | 48 | 215 | 0.9 | 3.5 | 0.00 | 0.01 | 0.00 | 90 | 1007.4 |
| 20260510084039 | 48 | 0 | 0.0 | 5.2 | 0.00 | 0.01 | 0.00 | 90 | 1007.8 |
| 20260510083539 | 48 | 198 | 0.9 | 5.2 | 0.00 | 0.01 | 0.00 | 90 | 1007.8 |
| 20260510083053 | 48 | 161 | 0.9 | 3.5 | 0.00 | 0.01 | 0.00 | 90 | 1007.7 |
| 20260510082539 | 48 | 0 | 0.9 | 3.5 | 0.00 | 0.01 | 0.00 | 90 | 1008.1 |
| 20260510082039 | 48 | 257 | 0.0 | 4.3 | 0.00 | 0.01 | 0.00 | 89 | 1008.1 |
| 20260510081548 | 48 | 0 | 1.7 | 4.3 | 0.00 | 0.01 | 0.00 | 89 | 1008.1 |
| 20260510081039 | 48 | 254 | 0.9 | 5.2 | 0.00 | 0.01 | 0.00 | 89 | 1008.1 |
| 20260510080541 | 48 | 270 | 0.0 | 5.2 | 0.00 | 0.01 | 0.00 | 89 | 1008.0 |
| 20260510080046 | 48 | 0 | 0.9 | 6.1 | 0.00 | 0.01 | 0.00 | 89 | 1008.1 |
| 20260510075539 | 48 | 261 | 1.7 | 6.1 | 0.00 | 0.01 | 0.00 | 89 | 1008.0 |
| 20260510075039 | 48 | 290 | 0.9 | 6.1 | 0.00 | 0.01 | 0.00 | 89 | 1008.0 |
| 20260510074552 | 48 | 0 | 0.9 | 6.1 | 0.00 | 0.01 | 0.00 | 89 | 1008.0 |
| 20260510074039 | 48 | 261 | 0.9 | 6.1 | 0.00 | 0.01 | 0.00 | 89 | 1007.9 |
| 20260510073538 | 48 | 0 | 0.9 | 4.3 | 0.00 | 0.01 | 0.00 | 89 | 1007.9 |
| 20260510073051 | 48 | 140 | 0.9 | 9.6 | 0.00 | 0.01 | 0.00 | 89 | 1007.8 |
| 20260510072538 | 48 | 0 | 0.9 | 9.6 | 0.00 | 0.01 | 0.00 | 89 | 1007.8 |
| 20260510072039 | 48 | 246 | 3.5 | 9.6 | 0.00 | 0.01 | 0.00 | 89 | 1007.9 |
| 20260510071542 | 48 | 213 | 0.9 | 7.0 | 0.00 | 0.01 | 0.00 | 89 | 1008.0 |
| 20260510071037 | 48 | 249 | 0.9 | 6.1 | 0.00 | 0.01 | 0.00 | 89 | 1008.1 |
| 20260510070538 | 48 | 225 | 1.7 | 6.1 | 0.00 | 0.01 | 0.00 | 89 | 1008.2 |
| 20260510070049 | 48 | 244 | 0.9 | 4.3 | 0.00 | 0.01 | 0.00 | 89 | 1008.2 |
| 20260510065539 | 48 | 248 | 1.7 | 7.0 | 0.00 | 0.01 | 0.00 | 89 | 1008.3 |
| 20260510065039 | 48 | 0 | 0.9 | 7.8 | 0.00 | 0.01 | 0.00 | 89 | 1008.1 |
| 20260510064546 | 48 | 196 | 2.6 | 7.8 | 0.00 | 0.01 | 0.00 | 89 | 1008.0 |
| 20260510064037 | 48 | 133 | 1.7 | 7.8 | 0.00 | 0.01 | 0.00 | 89 | 1007.9 |
| 20260510063539 | 48 | 0 | 1.7 | 7.8 | 0.00 | 0.01 | 0.00 | 89 | 1007.9 |
| 20260510063049 | 48 | 154 | 1.7 | 7.8 | 0.00 | 0.01 | 0.00 | 89 | 1007.9 |
| 20260510062542 | 48 | 239 | 0.9 | 5.2 | 0.00 | 0.01 | 0.00 | 89 | 1007.9 |
| 20260510062037 | 48 | 232 | 0.9 | 7.8 | 0.00 | 0.01 | 0.00 | 89 | 1007.9 |
| 20260510061555 | 48 | 317 | 2.6 | 9.6 | 0.00 | 0.01 | 0.00 | 89 | 1007.9 |
| 20260510061040 | 48 | 254 | 1.7 | 9.6 | 0.00 | 0.01 | 0.00 | 89 | 1008.0 |
| 20260510060540 | 48 | 229 | 1.7 | 6.1 | 0.00 | 0.01 | 0.00 | 89 | 1008.0 |
| 20260510060052 | 48 | 84 | 0.9 | 8.7 | 0.00 | 0.01 | 0.00 | 89 | 1008.1 |
| 20260510055539 | 48 | 167 | 0.9 | 10.4 | 0.00 | 0.01 | 0.00 | 89 | 1008.3 |
| 20260510055041 | 48 | 154 | 1.7 | 11.3 | 0.00 | 0.01 | 0.00 | 89 | 1008.3 |
| 20260510054547 | 48 | 195 | 2.6 | 11.3 | 0.00 | 0.01 | 0.00 | 89 | 1008.3 |
| 20260510054038 | 48 | 89 | 1.7 | 7.8 | 0.00 | 0.01 | 0.00 | 89 | 1008.3 |
| 20260510053540 | 48 | 234 | 2.6 | 6.1 | 0.00 | 0.01 | 0.00 | 89 | 1008.6 |
| 20260510053049 | 48 | 109 | 1.7 | 8.7 | 0.00 | 0.01 | 0.00 | 89 | 1008.4 |
| 20260510052539 | 48 | 244 | 2.6 | 8.7 | 0.00 | 0.01 | 0.00 | 89 | 1008.4 |
| 20260510052040 | 47 | 152 | 2.6 | 7.0 | 0.00 | 0.01 | 0.00 | 89 | 1008.3 |
| 20260510051600 | 47 | 209 | 1.7 | 7.8 | 0.00 | 0.01 | 0.00 | 89 | 1008.3 |
| 20260510051038 | 47 | 0 | 2.6 | 10.4 | 0.00 | 0.01 | 0.00 | 89 | 1008.2 |
| 20260510050538 | 47 | 201 | 2.6 | 10.4 | 0.00 | 0.01 | 0.00 | 89 | 1008.3 |
| 20260510050044 | 47 | 166 | 2.6 | 7.0 | 0.00 | 0.01 | 0.00 | 89 | 1008.4 |
| 20260510045539 | 47 | 206 | 2.6 | 7.8 | 0.00 | 0.01 | 0.00 | 89 | 1008.5 |
| 20260510045037 | 47 | 192 | 3.5 | 9.6 | 0.00 | 0.01 | 0.00 | 89 | 1008.6 |
| 20260510044555 | 47 | 223 | 2.6 | 9.6 | 0.00 | 0.01 | 0.00 | 89 | 1008.5 |
| 20260510044038 | 47 | 231 | 1.7 | 10.4 | 0.00 | 0.01 | 0.00 | 89 | 1008.4 |
| 20260510043539 | 47 | 221 | 3.5 | 10.4 | 0.00 | 0.01 | 0.00 | 89 | 1008.3 |
| 20260510043051 | 47 | 247 | 1.7 | 7.8 | 0.00 | 0.01 | 0.00 | 89 | 1008.3 |
| 20260510042541 | 47 | 129 | 2.6 | 7.8 | 0.00 | 0.01 | 0.00 | 89 | 1008.1 |
| 20260510042039 | 47 | 177 | 2.6 | 9.6 | 0.00 | 0.01 | 0.00 | 89 | 1008.1 |
| 20260510041544 | 47 | 187 | 3.5 | 9.6 | 0.00 | 0.01 | 0.00 | 89 | 1008.1 |
| 20260510041039 | 47 | 190 | 1.7 | 8.7 | 0.00 | 0.01 | 0.00 | 89 | 1008.2 |
| 20260510040539 | 47 | 99 | 3.5 | 8.7 | 0.00 | 0.01 | 0.00 | 89 | 1008.2 |
| 20260510040050 | 47 | 151 | 1.7 | 6.1 | 0.00 | 0.01 | 0.00 | 89 | 1008.4 |
| 20260510035538 | 47 | 188 | 1.7 | 6.1 | 0.00 | 0.01 | 0.01 | 89 | 1008.6 |
| 20260510035038 | 47 | 91 | 1.7 | 7.8 | 0.00 | 0.01 | 0.01 | 89 | 1008.7 |
| 20260510034547 | 47 | 133 | 1.7 | 7.8 | 0.00 | 0.01 | 0.01 | 89 | 1008.8 |
| 20260510034040 | 47 | 189 | 1.7 | 7.8 | 0.00 | 0.01 | 0.01 | 89 | 1008.7 |
| 20260510033539 | 47 | 250 | 1.7 | 7.8 | 0.00 | 0.01 | 0.01 | 89 | 1008.6 |
| 20260510033058 | 47 | 155 | 3.5 | 7.8 | 0.00 | 0.01 | 0.01 | 89 | 1008.5 |
| 20260510032543 | 47 | 240 | 2.6 | 8.7 | 0.00 | 0.01 | 0.01 | 89 | 1008.5 |
| 20260510032039 | 47 | 0 | 2.6 | 8.7 | 0.00 | 0.01 | 0.01 | 89 | 1008.5 |
| 20260510031547 | 47 | 139 | 2.6 | 8.7 | 0.00 | 0.01 | 0.01 | 88 | 1008.4 |
| 20260510031040 | 47 | 192 | 1.7 | 6.1 | 0.00 | 0.01 | 0.01 | 88 | 1008.6 |
| 20260510030539 | 47 | 132 | 1.7 | 8.7 | 0.00 | 0.01 | 0.01 | 88 | 1008.7 |
| 20260510030053 | 47 | 238 | 1.7 | 8.7 | 0.00 | 0.01 | 0.01 | 88 | 1008.7 |
| 20260510025539 | 47 | 267 | 1.7 | 8.7 | 0.00 | 0.01 | 0.01 | 88 | 1008.9 |
| 20260510025039 | 47 | 245 | 0.9 | 7.0 | 0.00 | 0.01 | 0.01 | 88 | 1008.8 |
| 20260510024544 | 47 | 224 | 2.6 | 7.0 | 0.00 | 0.01 | 0.01 | 88 | 1008.8 |
| 20260510024038 | 47 | 0 | 1.7 | 6.1 | 0.00 | 0.01 | 0.01 | 88 | 1008.8 |
| 20260510023538 | 47 | 212 | 1.7 | 9.6 | 0.00 | 0.01 | 0.01 | 88 | 1008.8 |
| 20260510023050 | 47 | 213 | 3.5 | 10.4 | 0.00 | 0.01 | 0.01 | 88 | 1008.8 |
| 20260510022542 | 47 | 165 | 2.6 | 10.4 | 0.00 | 0.01 | 0.01 | 88 | 1008.9 |
| 20260510022038 | 47 | 182 | 2.6 | 8.7 | 0.00 | 0.01 | 0.01 | 88 | 1008.7 |
| 20260510021548 | 47 | 147 | 2.6 | 8.7 | 0.00 | 0.01 | 0.01 | 88 | 1008.8 |
| 20260510021039 | 47 | 111 | 1.7 | 7.8 | 0.00 | 0.01 | 0.01 | 88 | 1008.9 |
| 20260510020542 | 47 | 194 | 1.7 | 7.8 | 0.00 | 0.01 | 0.01 | 88 | 1008.8 |
| 20260510020046 | 47 | 115 | 3.5 | 7.8 | 0.00 | 0.01 | 0.01 | 87 | 1008.8 |
| 20260510015537 | 47 | 188 | 1.7 | 6.1 | 0.00 | 0.01 | 0.01 | 87 | 1009.0 |
| 20260510015039 | 47 | 155 | 1.7 | 6.1 | 0.00 | 0.01 | 0.01 | 87 | 1009.1 |
| 20260510014548 | 47 | 0 | 0.9 | 5.2 | 0.00 | 0.01 | 0.01 | 87 | 1009.0 |
| 20260510014040 | 47 | 188 | 1.7 | 9.6 | 0.00 | 0.01 | 0.01 | 87 | 1009.1 |
| 20260510013540 | 47 | 130 | 2.6 | 9.6 | 0.00 | 0.01 | 0.01 | 87 | 1009.1 |
| 20260510013051 | 47 | 242 | 2.6 | 9.6 | 0.00 | 0.01 | 0.01 | 87 | 1009.2 |
| 20260510012540 | 47 | 141 | 1.7 | 7.0 | 0.00 | 0.01 | 0.01 | 87 | 1009.0 |
| 20260510012038 | 47 | 153 | 2.6 | 9.6 | 0.00 | 0.01 | 0.01 | 87 | 1009.0 |
| 20260510011549 | 47 | 123 | 2.6 | 10.4 | 0.00 | 0.01 | 0.01 | 87 | 1009.2 |
| 20260510011039 | 47 | 0 | 3.5 | 10.4 | 0.00 | 0.01 | 0.01 | 87 | 1009.4 |
| 20260510010536 | 47 | 153 | 3.5 | 7.8 | 0.00 | 0.01 | 0.01 | 87 | 1009.4 |
| 20260510010041 | 47 | 0 | 2.6 | 7.0 | 0.00 | 0.01 | 0.01 | 87 | 1009.3 |
| 20260510005539 | 47 | 206 | 1.7 | 6.1 | 0.00 | 0.01 | 0.01 | 87 | 1009.3 |
| 20260510005039 | 47 | 213 | 1.7 | 5.2 | 0.00 | 0.01 | 0.01 | 87 | 1009.4 |
| 20260510004550 | 47 | 142 | 0.9 | 5.2 | 0.00 | 0.01 | 0.01 | 87 | 1009.2 |
| 20260510004039 | 47 | 237 | 0.0 | 7.0 | 0.00 | 0.01 | 0.01 | 87 | 1009.2 |
| 20260510003540 | 47 | 233 | 0.9 | 7.0 | 0.00 | 0.01 | 0.01 | 87 | 1009.2 |
| 20260510003048 | 47 | 200 | 0.0 | 7.8 | 0.00 | 0.01 | 0.01 | 87 | 1009.0 |
| 20260510002538 | 47 | 0 | 2.6 | 7.8 | 0.00 | 0.01 | 0.01 | 87 | 1008.8 |
| 20260510002036 | 47 | 172 | 2.6 | 7.0 | 0.00 | 0.01 | 0.01 | 87 | 1008.8 |
| 20260510001550 | 47 | 229 | 1.7 | 8.7 | 0.00 | 0.01 | 0.01 | 86 | 1008.8 |
| 20260510001039 | 47 | 148 | 0.9 | 8.7 | 0.00 | 0.01 | 0.01 | 86 | 1009.0 |
| 20260510000541 | 47 | 178 | 2.6 | 7.8 | 0.00 | 0.01 | 0.01 | 86 | 1009.0 |
| 20260510000044 | 47 | 163 | 2.6 | 7.8 | 0.00 | 0.01 | 0.01 | 86 | 1008.9 |
| 20260509235539 | 47 | 175 | 1.7 | 7.8 | 0.00 | 0.01 | 0.01 | 86 | 1008.8 |
| 20260509235038 | 47 | 224 | 1.7 | 7.0 | 0.00 | 0.01 | 0.01 | 86 | 1008.8 |
| 20260509234554 | 47 | 99 | 0.9 | 4.3 | 0.00 | 0.01 | 0.01 | 86 | 1008.7 |
| 20260509234043 | 47 | 0 | 0.9 | 6.1 | 0.00 | 0.01 | 0.01 | 85 | 1008.7 |
| 20260509233541 | 47 | 175 | 0.9 | 6.1 | 0.00 | 0.01 | 0.01 | 85 | 1008.7 |
| 20260509233048 | 47 | 150 | 1.7 | 6.1 | 0.00 | 0.01 | 0.01 | 85 | 1008.8 |
| 20260509232542 | 47 | 220 | 0.9 | 4.3 | 0.00 | 0.01 | 0.01 | 85 | 1008.8 |
| 20260509232039 | 47 | 189 | 0.9 | 4.3 | 0.00 | 0.01 | 0.01 | 85 | 1008.8 |
| 20260509231549 | 48 | 167 | 0.0 | 4.3 | 0.00 | 0.01 | 0.01 | 85 | 1008.8 |
| 20260509231039 | 48 | 167 | 1.7 | 4.3 | 0.00 | 0.01 | 0.01 | 85 | 1008.8 |
| 20260509230539 | 48 | 281 | 1.7 | 4.3 | 0.00 | 0.01 | 0.01 | 85 | 1008.8 |
| 20260509230050 | 48 | 194 | 1.7 | 6.1 | 0.00 | 0.01 | 0.01 | 84 | 1008.8 |
| 20260509225539 | 48 | 0 | 2.6 | 6.1 | 0.00 | 0.01 | 0.01 | 84 | 1008.7 |
| 20260509225036 | 48 | 186 | 1.7 | 7.0 | 0.00 | 0.01 | 0.01 | 84 | 1008.7 |
| 20260509224547 | 48 | 53 | 0.9 | 7.0 | 0.00 | 0.01 | 0.01 | 84 | 1008.7 |
| 20260509224039 | 48 | 193 | 0.9 | 7.0 | 0.00 | 0.01 | 0.01 | 84 | 1008.8 |
| 20260509223538 | 48 | 176 | 1.7 | 7.0 | 0.00 | 0.01 | 0.01 | 84 | 1008.8 |
| 20260509223051 | 48 | 209 | 0.9 | 8.7 | 0.00 | 0.01 | 0.01 | 84 | 1008.8 |
| 20260509222541 | 48 | 169 | 2.6 | 8.7 | 0.00 | 0.01 | 0.01 | 84 | 1008.9 |
| 20260509222037 | 48 | 153 | 0.9 | 7.8 | 0.00 | 0.01 | 0.01 | 84 | 1008.9 |
| 20260509221547 | 48 | 169 | 2.6 | 7.8 | 0.00 | 0.01 | 0.01 | 84 | 1008.9 |
| 20260509221039 | 48 | 179 | 1.7 | 8.7 | 0.00 | 0.01 | 0.01 | 84 | 1008.9 |
| 20260509220539 | 48 | 213 | 1.7 | 8.7 | 0.00 | 0.01 | 0.01 | 84 | 1009.0 |
| 20260509220049 | 48 | 270 | 1.7 | 6.1 | 0.00 | 0.01 | 0.01 | 84 | 1009.1 |
| 20260509215539 | 47 | 137 | 1.7 | 6.1 | 0.00 | 0.01 | 0.01 | 84 | 1009.0 |
| 20260509215039 | 47 | 186 | 1.7 | 6.1 | 0.00 | 0.01 | 0.01 | 85 | 1009.1 |
| 20260509214549 | 47 | 202 | 1.7 | 6.1 | 0.00 | 0.01 | 0.01 | 85 | 1009.1 |
| 20260509214039 | 47 | 151 | 0.9 | 6.1 | 0.00 | 0.01 | 0.01 | 85 | 1009.2 |
| 20260509213539 | 47 | 200 | 1.7 | 3.5 | 0.00 | 0.01 | 0.01 | 85 | 1009.2 |
| 20260509213104 | 47 | 180 | 0.0 | 6.1 | 0.00 | 0.01 | 0.01 | 85 | 1009.2 |
| 20260509212540 | 47 | 183 | 1.7 | 7.0 | 0.00 | 0.01 | 0.01 | 84 | 1009.2 |
| 20260509212040 | 47 | 196 | 1.7 | 7.0 | 0.00 | 0.01 | 0.01 | 84 | 1009.3 |
| 20260509211546 | 47 | 200 | 1.7 | 8.7 | 0.00 | 0.01 | 0.01 | 84 | 1009.3 |
| 20260509211042 | 47 | 160 | 2.6 | 8.7 | 0.00 | 0.01 | 0.01 | 84 | 1009.3 |
| 20260509210538 | 47 | 171 | 1.7 | 9.6 | 0.00 | 0.01 | 0.01 | 84 | 1009.4 |
| 20260509205539 | 47 | 113 | 4.3 | 10.4 | 0.00 | 0.01 | 0.01 | 84 | 1009.4 |
| 20260509205039 | 47 | 257 | 3.5 | 10.4 | 0.00 | 0.01 | 0.01 | 85 | 1009.3 |
| 20260509204552 | 47 | 144 | 3.5 | 10.4 | 0.00 | 0.01 | 0.01 | 85 | 1009.2 |
| 20260509204038 | 47 | 166 | 2.6 | 10.4 | 0.00 | 0.01 | 0.01 | 85 | 1009.3 |
| 20260509203539 | 47 | 120 | 2.6 | 7.8 | 0.00 | 0.01 | 0.01 | 85 | 1009.3 |
| 20260509203049 | 47 | 150 | 1.7 | 7.8 | 0.00 | 0.01 | 0.01 | 85 | 1009.3 |
| 20260509202539 | 47 | 156 | 3.5 | 7.8 | 0.00 | 0.01 | 0.01 | 85 | 1009.4 |
| 20260509202040 | 47 | 217 | 3.5 | 12.2 | 0.00 | 0.01 | 0.01 | 85 | 1009.5 |
| 20260509201548 | 47 | 146 | 2.6 | 12.2 | 0.00 | 0.01 | 0.01 | 85 | 1009.5 |
| 20260509201039 | 47 | 121 | 0.9 | 9.6 | 0.00 | 0.01 | 0.01 | 84 | 1009.6 |
| 20260509200539 | 47 | 101 | 2.6 | 7.0 | 0.00 | 0.01 | 0.01 | 84 | 1009.7 |
| 20260509200050 | 48 | 261 | 3.5 | 7.0 | 0.00 | 0.01 | 0.01 | 84 | 1009.7 |
| 20260509195539 | 47 | 215 | 0.9 | 6.1 | 0.00 | 0.01 | 0.01 | 84 | 1009.7 |
| 20260509195041 | 47 | 231 | 0.9 | 5.2 | 0.00 | 0.01 | 0.01 | 84 | 1009.7 |
| 20260509194555 | 47 | 252 | 0.9 | 2.6 | 0.00 | 0.01 | 0.01 | 84 | 1009.8 |
| 20260509194039 | 47 | 216 | 0.9 | 3.5 | 0.00 | 0.01 | 0.01 | 84 | 1009.8 |
| 20260509193543 | 47 | 0 | 0.9 | 3.5 | 0.00 | 0.01 | 0.01 | 84 | 1009.9 |
| 20260509193044 | 47 | 0 | 0.0 | 4.3 | 0.00 | 0.01 | 0.01 | 85 | 1010.0 |
| 20260509192542 | 47 | 0 | 0.0 | 6.1 | 0.00 | 0.01 | 0.01 | 84 | 1009.9 |
| 20260509192039 | 47 | 184 | 2.6 | 6.1 | 0.00 | 0.01 | 0.01 | 84 | 1009.9 |
| 20260509191548 | 47 | 107 | 0.9 | 5.2 | 0.00 | 0.01 | 0.01 | 85 | 1010.0 |
| 20260509191040 | 47 | 0 | 2.6 | 6.1 | 0.00 | 0.01 | 0.01 | 85 | 1010.0 |
| 20260509190539 | 47 | 155 | 1.7 | 6.1 | 0.00 | 0.01 | 0.01 | 85 | 1010.0 |
| 20260509190052 | 47 | 157 | 1.7 | 6.1 | 0.00 | 0.01 | 0.01 | 86 | 1010.0 |
| 20260509185539 | 47 | 214 | 1.7 | 6.1 | 0.00 | 0.01 | 0.01 | 86 | 1010.1 |
| 20260509185040 | 47 | 180 | 2.6 | 6.1 | 0.01 | 0.01 | 0.01 | 85 | 1010.1 |
| 20260509184555 | 47 | 159 | 1.7 | 6.1 | 0.01 | 0.01 | 0.01 | 86 | 1010.2 |
| 20260509184039 | 47 | 210 | 0.9 | 5.2 | 0.01 | 0.01 | 0.01 | 85 | 1010.3 |
| 20260509183539 | 47 | 171 | 2.6 | 9.6 | 0.01 | 0.01 | 0.01 | 84 | 1010.4 |
| 20260509183051 | 47 | 117 | 3.5 | 9.6 | 0.01 | 0.01 | 0.01 | 84 | 1010.4 |
| 20260509182539 | 47 | 147 | 3.5 | 8.7 | 0.01 | 0.01 | 0.01 | 84 | 1010.6 |
| 20260509182038 | 47 | 166 | 0.9 | 7.0 | 0.01 | 0.01 | 0.01 | 85 | 1010.6 |
| 20260509181555 | 47 | 182 | 2.6 | 7.8 | 0.01 | 0.01 | 0.01 | 85 | 1010.6 |
| 20260509181039 | 47 | 144 | 1.7 | 7.8 | 0.01 | 0.01 | 0.01 | 85 | 1010.6 |
| 20260509180538 | 47 | 128 | 2.6 | 9.6 | 0.01 | 0.01 | 0.01 | 85 | 1010.5 |
| 20260509180047 | 47 | 179 | 1.7 | 9.6 | 0.01 | 0.01 | 0.01 | 86 | 1010.6 |
| 20260509175539 | 47 | 150 | 3.5 | 9.6 | 0.01 | 0.01 | 0.01 | 86 | 1010.6 |
| 20260509175039 | 47 | 0 | 0.0 | 7.0 | 0.00 | 0.00 | 0.00 | 86 | 1010.6 |
| 20260509174549 | 47 | 133 | 1.7 | 7.0 | 0.00 | 0.00 | 0.00 | 85 | 1010.8 |
| 20260509174038 | 47 | 105 | 2.6 | 7.0 | 0.00 | 0.00 | 0.00 | 85 | 1010.8 |
| 20260509173537 | 47 | 251 | 2.6 | 7.0 | 0.00 | 0.00 | 0.00 | 85 | 1010.8 |
| 20260509173049 | 47 | 234 | 2.6 | 7.0 | 0.00 | 0.00 | 0.00 | 85 | 1010.8 |
| 20260509172540 | 47 | 202 | 2.6 | 9.6 | 0.00 | 0.00 | 0.00 | 84 | 1010.9 |
| 20260509172039 | 47 | 209 | 3.5 | 9.6 | 0.00 | 0.00 | 0.00 | 84 | 1010.9 |
| 20260509171551 | 47 | 140 | 2.6 | 10.4 | 0.00 | 0.00 | 0.00 | 83 | 1010.9 |
| 20260509171037 | 47 | 144 | 3.5 | 11.3 | 0.00 | 0.00 | 0.00 | 83 | 1010.8 |
| 20260509170540 | 48 | 173 | 3.5 | 11.3 | 0.00 | 0.00 | 0.00 | 81 | 1011.0 |
| 20260509170053 | 48 | 153 | 4.3 | 11.3 | 0.00 | 0.00 | 0.00 | 79 | 1011.0 |
| 20260509165541 | 49 | 180 | 3.5 | 11.3 | 0.00 | 0.00 | 0.00 | 77 | 1010.9 |
| 20260509165039 | 50 | 228 | 2.6 | 13.0 | 0.00 | 0.00 | 0.00 | 74 | 1010.9 |
| 20260509164549 | 50 | 100 | 4.3 | 13.0 | 0.00 | 0.00 | 0.00 | 69 | 1010.9 |
| 20260509164039 | 51 | 148 | 2.6 | 12.2 | 0.00 | 0.00 | 0.00 | 68 | 1010.9 |
| 20260509163539 | 51 | 213 | 4.3 | 13.0 | 0.00 | 0.00 | 0.00 | 67 | 1010.9 |
| 20260509163050 | 51 | 209 | 4.3 | 13.9 | 0.00 | 0.00 | 0.00 | 66 | 1010.9 |
| 20260509162540 | 51 | 136 | 5.2 | 16.5 | 0.00 | 0.00 | 0.00 | 65 | 1011.0 |
| 20260509162040 | 51 | 170 | 3.5 | 16.5 | 0.00 | 0.00 | 0.00 | 65 | 1011.0 |
| 20260509161545 | 52 | 157 | 4.3 | 14.8 | 0.00 | 0.00 | 0.00 | 62 | 1011.0 |
| 20260509161039 | 52 | 151 | 3.5 | 13.0 | 0.00 | 0.00 | 0.00 | 62 | 1010.9 |